Vertical_Velocity
5 2 -4 -1 2 -5 4 -2 15 5 -5 4 -8 21 12 8 1 0 2 -0 -2 -3 -1 1 5 -1 -3 -1 -4 -2 -7 0 6 5 1 0 3 2 10 17 14 1 4 -39
2 1 -3 -3 -1 2 -1 1 23 -0 -2 2 -3 5 -3 2 2 4 1 -2 -1 0 0 1 3 1 -7 -2 -3 -7 -2 2 -2 7 4 -0 -3 9 13 9 12 5 22 -5
-2 -1 -6 6 -4 0 0 -8 5 -9 -8 5 -1 -4 -5 1 -3 2 -1 2 0 -0 1 -0 -0 -1 -0 -5 -1 -2 2 4 1 -7 -1 -6 -7 0 3 2 1 1 6 7
-0 -1 -7 1 -4 10 -8 14 15 -6 -4 6 4 1 5 3 7 5 1 1 1 0 1 -2 0 1 -3 0 -2 -1 7 2 -1 -4 -2 9 10 3 3 1 -8 -5 -10 7
0 -0 -7 -5 -2 3 -0 -8 -1 11 9 -1 -3 -0 -3 -1 1 -2 1 3 -3 -2 2 -2 0 -1 -1 -4 -2 2 5 -2 -1 -1 3 -1 6 2 -2 -1 -4 -1 -1 -11
-3 0 -5 -5 -2 0 -7 -7 -6 -2 15 4 -4 0 4 5 2 2 -0 -3 -0 2 -1 1 0 -3 -2 -2 1 5 -0 -3 1 -5 -3 0 7 17 0 0 -3 -6 -3 3
-6 -1 -1 -9 -2 -5 -2 -4 5 8 3 -1 5 1 -1 5 -3 -3 0 -1 0 0 0 1 -3 -2 -2 0 4 -0 -1 -2 -2 -1 4 -1 -1 3 -2 -0 11 -5 -7 -1
-3 -5 -6 -0 -3 6 11 1 9 -1 2 -4 -3 4 -4 -1 1 -1 -1 1 2 1 -0 1 -5 -3 1 2 4 -2 -1 -3 -3 -2 -1 -1 -2 3 8 -5 -2 6 -2 -2
-1 -4 -12 3 -0 -0 5 3 -1 -1 -1 -0 -0 -1 -4 -3 1 -0 -2 1 2 -2 -4 -2 -1 -1 3 6 -0 -2 -2 -2 -4 -0 -1 -1 -1 -0 3 -4 -3 -3 -5 2
-2 -0 -4 0 -5 3 -0 -1 1 -1 -4 -1 0 -1 -2 -1 -0 -1 -0 3 0 -3 -2 -5 1 -2 -0 -1 -0 -2 -2 -2 -1 -2 -0 0 1 1 -0 11 2 1 2 6
-1 -3 -4 -2 3 0 -2 -3 -3 -4 -3 -2 -2 -3 -2 -1 -0 0 0 -2 -3 -3 -3 -4 0 2 1 1 -1 -2 -0 -0 -2 -3 -4 -2 0 -1 5 -1 7 14 8 4
-4 -4 -5 0 -7 2 -1 -1 -0 -3 1 -2 -4 -3 -2 -1 -1 -1 -1 -3 -2 1 1 -1 -2 2 3 -0 -1 -2 -2 -2 -1 -0 1 2 -1 0 -1 2 1 0 -0 -1
-5 -2 -2 -1 3 -1 -2 -3 -3 0 -3 -2 -1 -2 -1 -0 -2 -0 1 2 5 6 3 2 -1 2 2 0 -0 -0 -1 -0 -2 0 -1 -1 2 -0 1 2 1 2 -0 0
-4 -0 1 -3 -2 -0 0 0 -1 -3 -2 -3 -2 -3 -3 -1 3 3 2 4 1 1 1 4 5 2 1 1 -1 1 -2 0 -1 1 -1 0 -2 -1 -3 1 9 2 1 2
3 -3 -0 -1 -1 2 -1 -1 -1 -8 -1 -2 -3 -2 2 1 2 -0 1 1 1 4 1 3 2 1 1 -1 1 1 -1 0 1 1 -0 1 -2 -1 -0 -3 -2 2 -0 -1
1 -0 -1 -1 -1 -3 -4 -2 -6 -2 2 1 0 0 4 4 4 8 3 2 1 3 3 -0 -1 -1 -1 -1 1 -5 1 0 1 -2 1 2 -0 -1 -2 -1 0 -1 -1 0
2 1 0 0 2 3 7 8 0 -1 -0 -2 -1 2 1 4 4 2 4 6 2 -1 -1 2 0 -1 -3 1 2 -8 0 0 -2 -1 -0 1 -0 -1 -0 -1 0 7 0 -0
-2 3 -0 2 1 -1 3 -3 -2 -1 -0 1 0 -1 3 1 2 -0 -0 -0 1 1 2 0 0 1 2 3 -5 1 2 -1 -2 -1 -1 -1 0 3 7 -0 3 -1 6 18
1 1 -1 -1 -2 -1 -1 0 1 -0 -1 1 1 1 4 1 1 1 -0 -0 1 2 1 1 0 1 4 -5 -0 3 2 -2 -0 -0 -3 -1 -1 6 2 2 1 -2 -1 -1
0 2 -1 -5 -7 -0 -3 -1 -0 -2 -2 -0 1 -1 2 1 -0 -1 0 -0 -1 -0 1 1 0 -3 -0 -1 2 -0 -2 -2 -2 14 -0 1 0 0 4 3 3 2 14 1
-1 0 -0 2 -1 -3 -3 -2 -1 1 2 1 0 0 2 2 1 -0 -0 -0 1 1 1 0 0 1 -1 -1 -3 -1 -2 1 1 -0 1 1 2 1 1 1 -0 2 5 1
-3 2 3 -2 -1 -0 -4 -4 -2 4 3 0 -2 -1 -1 0 0 -1 -0 -1 -1 -0 -0 -0 0 1 1 1 0 1 0 0 0 1 1 1 1 -1 -1 -1 1 1 2 1
0 2 2 2 -5 -11 -6 -0 5 5 -1 2 -3 -2 -2 -3 1 -1 -2 -1 -0 0 -0 -1 1 -1 -0 -1 0 1 1 1 1 1 1 1 1 -0 2 2 1 2 2 2
-2 1 3 1 -7 -7 -3 6 3 -1 -2 -1 -1 -2 -0 -1 -2 -2 -1 -1 0 -0 0 1 1 -0 -0 0 1 1 1 1 1 0 -0 0 1 1 -0 0 1 0 -0 -1
-1 2 -2 1 -7 -4 1 8 0 -0 -2 -2 -2 1 1 -4 -2 -1 1 0 0 0 1 1 -0 -0 1 1 -0 -1 -1 -0 1 1 1 1 0 0 1 2 2 1 1 1
-3 -1 -0 1 1 -4 5 4 -2 -0 -2 -2 -2 -0 1 2 -4 4 0 5 5 1 -0 1 -0 -1 -1 -0 0 0 -0 -0 0 0 1 0 1 1 1 -0 1 1 -1 -0
-0 -2 -2 -1 3 2 -1 4 3 1 -2 -0 -4 -0 1 1 -4 5 7 8 -2 -2 -3 -2 -1 1 1 0 -0 1 2 2 1 1 1 2 2 0 0 1 1 1 0 1
Height
5464 5458 5459 5460 5457 5454 5455 5456 5460 5466 5475 5490 5502 5515 5527 5540 5550 5556 5562 5569 5576 5583 5589 5594 5599 5604 5604 5605 5607 5607 5607 5606 5607 5606 5602 5598 5592 5587 5580 5569 5561 5550 5545 5544
5460 5455 5458 5458 5458 5456 5458 5463 5467 5472 5484 5495 5508 5518 5527 5539 5548 5553 5558 5564 5571 5577 5584 5589 5593 5598 5597 5599 5601 5602 5603 5602 5600 5601 5597 5588 5582 5580 5570 5559 5552 5545 5537 5538
5456 5453 5455 5458 5461 5463 5462 5468 5475 5482 5491 5504 5509 5518 5528 5537 5545 5550 5554 5561 5567 5574 5579 5583 5590 5593 5592 5595 5596 5598 5599 5596 5594 5591 5589 5584 5577 5571 5563 5557 5548 5539 5534 5532
5455 5454 5455 5460 5464 5465 5469 5473 5479 5490 5500 5505 5512 5520 5529 5537 5543 5549 5553 5559 5565 5570 5576 5581 5585 5587 5589 5592 5593 5594 5593 5592 5590 5587 5585 5580 5573 5566 5559 5554 5549 5539 5533 5533
5456 5456 5455 5460 5466 5468 5473 5479 5488 5494 5499 5505 5512 5522 5530 5537 5542 5546 5552 5557 5560 5567 5575 5577 5580 5582 5586 5587 5589 5588 5588 5588 5589 5587 5584 5578 5571 5564 5556 5552 5550 5543 5538 5534
5460 5460 5458 5463 5467 5471 5478 5486 5491 5496 5501 5508 5516 5524 5531 5537 5541 5546 5550 5555 5562 5566 5568 5573 5576 5580 5581 5583 5585 5584 5583 5585 5586 5586 5583 5577 5574 5563 5556 5553 5551 5550 5545 5543
5465 5466 5464 5467 5473 5481 5488 5490 5494 5500 5506 5512 5517 5523 5530 5536 5540 5545 5550 5555 5559 5563 5566 5569 5573 5576 5577 5580 5579 5581 5582 5583 5584 5585 5582 5577 5572 5566 5561 5557 5552 5555 5555 5552
5468 5470 5472 5476 5479 5483 5489 5495 5500 5505 5510 5514 5519 5525 5531 5536 5540 5545 5549 5553 5557 5560 5563 5566 5570 5573 5575 5576 5578 5581 5581 5582 5583 5582 5580 5577 5575 5572 5565 5563 5560 5560 5560 5562
5472 5473 5476 5480 5483 5489 5496 5500 5505 5510 5514 5518 5522 5526 5532 5537 5541 5545 5548 5551 5554 5557 5559 5562 5566 5568 5571 5574 5578 5580 5581 5581 5582 5581 5580 5579 5577 5574 5570 5568 5566 5564 5563 5566
5475 5475 5479 5483 5488 5495 5499 5504 5508 5513 5518 5521 5525 5529 5534 5538 5542 5545 5547 5550 5553 5555 5556 5558 5562 5565 5567 5572 5576 5579 5580 5581 5582 5581 5580 5581 5579 5577 5575 5574 5574 5571 5572 5572
5478 5479 5483 5487 5494 5499 5503 5507 5511 5516 5520 5524 5527 5529 5533 5537 5540 5542 5545 5550 5551 5551 5551 5554 5557 5561 5565 5570 5574 5577 5579 5581 5581 5581 5582 5582 5580 5580 5579 5578 5576 5577 5576 5579
5482 5486 5489 5493 5498 5501 5504 5509 5513 5517 5521 5524 5526 5529 5532 5534 5537 5539 5543 5545 5545 5546 5547 5551 5554 5558 5563 5568 5572 5575 5578 5580 5579 5580 5580 5582 5581 5580 5580 5580 5580 5580 5580 5581
5485 5488 5492 5496 5500 5504 5508 5512 5515 5517 5519 5522 5525 5528 5530 5532 5535 5538 5539 5540 5541 5543 5545 5548 5551 5556 5562 5566 5570 5572 5574 5576 5576 5578 5578 5579 5581 5580 5579 5580 5580 5582 5582 5583
5483 5488 5492 5497 5502 5505 5509 5513 5516 5518 5519 5521 5524 5526 5528 5531 5533 5534 5534 5536 5538 5541 5544 5546 5549 5555 5560 5564 5567 5570 5573 5574 5574 5576 5576 5577 5578 5579 5579 5579 5580 5581 5583 5584
5478 5485 5490 5496 5500 5505 5509 5512 5515 5517 5519 5519 5522 5525 5528 5529 5530 5530 5531 5533 5536 5540 5543 5546 5550 5554 5559 5562 5565 5568 5569 5571 5573 5574 5575 5576 5577 5576 5577 5578 5579 5581 5583 5584
5471 5480 5488 5494 5499 5503 5508 5512 5515 5516 5516 5518 5521 5525 5526 5527 5528 5530 5530 5532 5535 5539 5543 5546 5550 5553 5556 5559 5564 5564 5566 5568 5570 5571 5572 5574 5575 5576 5576 5577 5579 5580 5582 5584
5466 5476 5485 5492 5497 5503 5508 5513 5514 5515 5516 5518 5521 5524 5525 5526 5528 5529 5530 5532 5536 5540 5542 5545 5548 5551 5553 5557 5559 5558 5562 5565 5567 5569 5570 5571 5573 5574 5575 5577 5578 5579 5580 5581
5464 5475 5483 5490 5495 5501 5506 5508 5510 5513 5515 5518 5521 5524 5525 5526 5528 5529 5531 5533 5536 5538 5541 5544 5547 5549 5551 5553 5552 5558 5558 5562 5564 5566 5567 5568 5570 5571 5573 5574 5576 5577 5578 5578
5464 5474 5482 5489 5495 5500 5503 5507 5509 5511 5515 5517 5521 5523 5525 5526 5528 5530 5532 5534 5536 5538 5540 5542 5545 5547 5549 5550 5553 5555 5557 5560 5562 5563 5564 5566 5568 5569 5570 5572 5573 5575 5576 5577
5465 5475 5483 5489 5494 5499 5502 5506 5507 5509 5513 5517 5520 5522 5525 5527 5528 5530 5532 5534 5536 5538 5540 5541 5542 5544 5546 5549 5551 5553 5555 5557 5559 5559 5562 5563 5565 5567 5568 5569 5571 5572 5573 5573
5468 5476 5483 5489 5493 5497 5501 5503 5506 5509 5513 5516 5518 5521 5524 5527 5528 5529 5531 5533 5535 5537 5539 5540 5541 5542 5544 5546 5548 5550 5552 5554 5556 5557 5559 5560 5562 5563 5564 5566 5568 5569 5569 5571
5472 5478 5483 5488 5492 5495 5499 5502 5506 5509 5511 5513 5516 5519 5522 5525 5527 5528 5530 5532 5534 5536 5538 5539 5540 5541 5542 5544 5545 5547 5549 5551 5552 5554 5556 5557 5559 5560 5561 5563 5564 5566 5567 5568
5472 5477 5481 5485 5488 5492 5497 5501 5505 5507 5508 5510 5512 5516 5519 5521 5524 5526 5529 5531 5532 5533 5535 5537 5539 5540 5541 5542 5544 5545 5546 5548 5549 5551 5552 5554 5556 5557 5558 5560 5561 5563 5564 5565
5471 5474 5478 5481 5484 5489 5494 5499 5502 5504 5505 5507 5509 5511 5514 5517 5520 5523 5525 5528 5530 5531 5532 5535 5537 5538 5540 5541 5542 5543 5544 5545 5547 5548 5549 5551 5552 5553 5555 5556 5557 5558 5559 5559
5468 5470 5472 5475 5480 5486 5490 5495 5497 5499 5501 5503 5504 5506 5509 5511 5514 5518 5522 5524 5527 5529 5530 5531 5533 5535 5536 5538 5539 5541 5542 5543 5544 5545 5547 5548 5549 5550 5551 5552 5553 5553 5553 5554
5465 5464 5467 5470 5475 5480 5484 5488 5492 5494 5497 5499 5501 5502 5504 5507 5509 5514 5516 5520 5523 5525 5526 5528 5529 5532 5533 5535 5536 5537 5538 5539 5540 5542 5543 5543 5544 5545 5545 5546 5547 5548 5547 5547
5464 5461 5461 5463 5466 5472 5477 5480 5485 5489 5492 5495 5496 5498 5500 5501 5503 5507 5510 5515 5516 5516 5519 5520 5523 5526 5528 5530 5531 5532 5533 5535 5536 5536 5537 5539 5540 5540 5541 5542 5542 5542 5542 5542